Location: Gleizolles
(44.4833°N, 6.7667°E)
Time: 13:50:45
(UTC+00:00)

deb Explorer IX - Pass Details

Date: 26 June 2024
Orbit: 510 x 878 km, 38.7° (Epoch: 21 July)

Event Time Altitude Azimuth Distance (km) Brightness Sun altitude
Rises 09:29:46 0° 265° (W) 2,826 ? 56.7°
Reaches altitude 10° 09:32:05 10° 257° (WSW) 1,980 ? 57.1°
Maximum altitude 09:36:17 36° 191° (S) 1,060 ? 57.7°
Drops below altitude 10° 09:40:57 10° 126° (SE) 2,206 ? 58.4°
Sets 09:43:40 0° 118° (ESE) 3,197 ? 58.8°
